[[{"header":{"parameterUnit":"m.s-1","parameterCategory":1,"la1":30.2991,"la2":30.254,"lo1":-89.0895,"lo2":-89.0444,"dy":0.0017,"dx":0.0017,"nx":28,"ny":28,"refTime":"2023-10-05T21:00:00:Z","depth":0,"parameterNumber":2,"parameterNumberName":"U-component_of_WINDS"},"data":[0,0,0,0,0,0,0,0,0,0,0,0,0,0,0,0,0,0,0,0,0,0,0,0,0,0,0,0,0,0,0,0,0,0,0,0,0,0,0,0,0,0,0,0,0,0,0,0,0,0,0,0,0,0,0,0,0,0,-0.4196,-0.4197,0,-0.4235,-0.4235,-0.4235,-0.4189,-0.4187,-0.4186,-0.4184,-0.4225,-0.4228,-0.423,0,0,0,0,0,0,0,0,0,0,0,0,0,-0.4084,-0.4086,-0.4196,-0.4197,-0.4197,-0.4235,-0.4235,-0.4236,-0.4189,-0.4187,-0.4185,-0.4183,-0.4224,-0.4227,-0.4231,0,0,0,0,0,0,0,0,0,0,0,0,0,-0.4128,-0.4087,-0.4196,-0.4178,-0.4177,-0.4234,-0.4235,-0.4236,-0.419,-0.4187,-0.4185,-0.4182,-0.4223,-0.4227,-0.4231,-0.4308,0,0,-0.4244,-0.4245,0,0,0,0,0,0,0,0,-0.4126,-0.4133,-0.4181,-0.418,-0.4178,-0.4204,-0.421,-0.426,-0.419,-0.4185,-0.4184,-0.4181,-0.422,-0.4225,-0.4237,-0.431,-0.4312,-0.4244,-0.4246,-0.4248,-0.4249,0,0,0,0,0,0,0,-0.4123,-0.4131,-0.4211,-0.4181,-0.418,-0.4169,-0.4172,-0.422,-0.4217,-0.4185,-0.4182,-0.4187,-0.4219,-0.4234,-0.4238,-0.4312,-0.4244,-0.4247,-0.425,-0.4251,-0.445,-0.4453,0,0,0,0,0,0,-0.4122,-0.4128,-0.421,-0.4213,-0.4145,-0.4173,-0.4177,-0.4199,-0.4216,-0.4216,-0.4189,-0.4185,-0.4228,-0.4233,-0.4239,-0.4332,-0.4248,-0.4252,-0.4254,-0.4447,-0.4451,-0.4454,0,0,0,0,0,0,-0.4119,-0.4129,-0.4209,-0.417,-0.4179,-0.4178,-0.4203,-0.4201,-0.4215,-0.4219,-0.4219,-0.4204,-0.4226,-0.4234,-0.4291,-0.4332,-0.4254,-0.4257,-0.4444,-0.4448,-0.4452,-0.4516,0,0,0,0,0,0,-0.4116,-0.4129,-0.4158,-0.4171,-0.4181,-0.426,-0.4205,-0.4203,-0.4222,-0.4217,-0.4233,-0.4234,-0.4225,-0.4286,-0.4295,-0.4337,-0.4261,-0.444,-0.4446,-0.4451,-0.4511,-0.4522,-0.4532,0,0,0,0,0,-0.4112,-0.4175,-0.416,-0.417,-0.4217,-0.4262,-0.4268,-0.4257,-0.4225,-0.4255,-0.4257,-0.4233,-0.4326,-0.4292,-0.4302,-0.4346,-0.4438,-0.4444,-0.4451,-0.4506,-0.452,-0.4532,0,0,0,0,0,0,-0.4168,-0.4176,-0.416,-0.4228,-0.4245,-0.4254,-0.4292,-0.4272,-0.4299,-0.4293,-0.4277,-0.4281,-0.4343,-0.4349,-0.4311,-0.4421,-0.4377,-0.4386,-0.4415,-0.4429,-0.4439,-0.4437,-0.4264,0,0,0,0,0,-0.4188,-0.4223,-0.4228,-0.4288,-0.4297,-0.4293,-0.4312,-0.4301,-0.4318,-0.4326,-0.4332,-0.435,-0.4383,-0.4406,-0.4436,-0.451,-0.4514,-0.4545,-0.4556,-0.4565,-0.4573,-0.4614,-0.4628,-0.4475,-0.4475,-0.4475,0,0,-0.423,-0.4239,-0.4262,-0.4299,-0.4311,-0.4349,-0.43,-0.4341,-0.4369,-0.4332,-0.4388,-0.4393,-0.4412,-0.4478,-0.4507,-0.4486,-0.4616,-0.4573,-0.458,-0.4584,-0.4622,-0.4636,-0.4649,-0.4479,-0.4478,-0.4478,0,0,-0.4327,-0.4336,-0.4387,-0.44,-0.4418,-0.4414,-0.4427,-0.4439,-0.4441,-0.4496,-0.4469,-0.4502,-0.4559,-0.4574,-0.4589,-0.4689,-0.4669,-0.47,-0.4757,-0.4797,-0.4809,-0.482,-0.4857,-0.4871,-0.4708,-0.4708,-0.4708,0,-0.4377,-0.4433,-0.4416,-0.446,-0.4478,-0.4444,-0.4496,-0.4509,-0.4537,-0.455,-0.4524,-0.4596,-0.4606,-0.4676,-0.47,-0.4713,-0.4727,-0.4699,-0.4808,-0.4819,-0.4829,-0.4864,-0.4878,-0.4712,-0.4711,-0.4711,-0.471,0,-0.4495,-0.4533,-0.4572,-0.46,-0.4621,-0.4669,-0.466,-0.4684,-0.467,-0.4669,-0.4726,-0.4736,-0.4769,-0.4784,-0.4772,-0.4852,-0.4838,-0.4811,-0.4766,-0.4847,-0.4881,-0.4894,-0.4717,-0.4716,-0.4715,-0.4714,0,0,-0.463,-0.4646,-0.4661,-0.4673,-0.469,-0.472,-0.4766,-0.4797,-0.4818,-0.4837,-0.4877,-0.4925,-0.4899,-0.4916,-0.4905,-0.4939,-0.502,-0.4908,-0.4908,-0.493,-0.5111,-0.5134,-0.515,-0.5005,-0.5007,-0.5009,-0.511,0,-0.4729,-0.4808,-0.4794,-0.4872,-0.4908,-0.4876,-0.4916,-0.4931,-0.4931,-0.4962,-0.4961,-0.4996,-0.4959,-0.4969,-0.5001,-0.5004,-0.5057,-0.4995,-0.5043,-0.5044,-0.5042,-0.5167,-0.5191,-0.5286,-0.5123,-0.5125,-0.5127,0,-0.4855,-0.4879,-0.496,-0.4971,-0.4986,-0.5022,-0.505,-0.5079,-0.5095,-0.5092,-0.511,-0.5092,-0.5138,-0.5091,-0.5155,-0.5114,-0.5131,-0.5135,-0.5138,-0.5145,-0.5093,-0.5179,-0.5316,-0.5331,-0.5147,-0.5145,-0.5143,0,-0.4949,-0.5,-0.5056,-0.5067,-0.5081,-0.5107,-0.5114,-0.5127,-0.5147,-0.517,-0.5183,-0.5211,-0.5228,-0.525,-0.524,-0.5206,-0.5307,-0.5258,-0.5307,-0.5308,-0.5333,-0.5332,-0.5477,-0.534,-0.5339,-0.5339,-0.5339,0,-0.5062,-0.5113,-0.5098,-0.5133,-0.519,-0.5172,-0.5229,-0.5232,-0.5244,-0.5279,-0.5251,-0.5285,-0.5268,-0.53,-0.5292,-0.5347,-0.5354,-0.5354,-0.5352,-0.5359,-0.5359,-0.5372,-0.5367,-0.5343,-0.5342,-0.5341,-0.5341,0,-0.5178,-0.5169,-0.5228,-0.5235,-0.5238,-0.528,-0.5287,-0.5319,-0.5315,-0.536,-0.5369,-0.5365,-0.5401,-0.5392,-0.5432,-0.5427,-0.5496,-0.5485,-0.5492,-0.549,-0.554,-0.5536,-0.5701,-0.5723,-0.5569,-0.557,-0.5572,0,-0.5252,-0.5291,-0.5302,-0.5323,-0.5332,-0.5366,-0.5386,-0.5369,-0.5391,-0.5411,-0.5441,-0.5475,-0.5501,-0.5561,-0.5561,-0.5591,-0.5581,-0.5637,-0.5586,-0.5591,-0.5585,-0.5584,-0.5589,-0.5648,-0.565,-0.5651,-0.5653,0,-0.5385,-0.5379,-0.5408,-0.5436,-0.546,-0.5481,-0.5499,-0.5518,-0.5503,-0.5528,-0.5565,-0.5585,-0.5625,-0.5659,-0.5686,-0.5693,-0.5672,-0.5668,-0.5681,-0.569,-0.5693,-0.5694,-0.5522,-0.5665,-0.5664,-0.5663,-0.5662,-0.5662,-0.5484,-0.5518,-0.5531,-0.5564,-0.5576,-0.5593,-0.5624,-0.5624,-0.5654,-0.5686,-0.5673,-0.5716,-0.5729,-0.5764,-0.5774,-0.5807,-0.5786,-0.5805,-0.581,-0.5816,-0.5823,-0.5685,-0.5812,-0.5811,-0.5811,-0.581,-0.581,0,-0.5619,-0.5625,-0.5655,-0.5682,-0.5708,-0.5682,-0.5701,-0.5725,-0.5762,-0.5777,-0.5803,-0.5845,-0.5877,-0.5879,-0.591,-0.5936,-0.5926,-0.5944,-0.5944,-0.5946,-0.5839,-0.5826,-0.5952,-0.5952,-0.5952,-0.5952,-0.5951,-0.5951,-0.5692,-0.5748,-0.5742,-0.5803,-0.5809,-0.585,-0.5863,-0.5879,-0.5891,-0.5939,-0.5965,-0.5966,-0.5975,-0.6006,-0.6035,-0.6034,-0.6048,-0.6071,-0.6067,-0.5968,-0.5954,-0.594,-0.5928,-0.6073,-0.6073,-0.6171,-0.6172,-0.6173]},{"header":{"parameterUnit":"m.s-1","parameterCategory":1,"la1":30.2991,"la2":30.254,"lo1":-89.0895,"lo2":-89.0444,"dy":0.0017,"dx":0.0017,"nx":28,"ny":28,"refTime":"2023-10-05T21:00:00:Z","depth":0,"parameterNumber":3,"parameterNumberName":"V-component_of_WINDS"},"data":[0,0,0,0,0,0,0,0,0,0,0,0,0,0,0,0,0,0,0,0,0,0,0,0,0,0,0,0,0,0,0,0,0,0,0,0,0,0,0,0,0,0,0,0,0,0,0,0,0,0,0,0,0,0,0,0,0,0,-5.6797,-5.6798,0,-5.6901,-5.6902,-5.6903,-5.6822,-5.6818,-5.6815,-5.6812,-5.6914,-5.692,-5.6926,0,0,0,0,0,0,0,0,0,0,0,0,0,-5.6525,-5.653,-5.6797,-5.6798,-5.68,-5.6901,-5.6902,-5.6903,-5.6822,-5.6818,-5.6814,-5.681,-5.6912,-5.6919,-5.6926,0,0,0,0,0,0,0,0,0,0,0,0,0,-5.6637,-5.6532,-5.6797,-5.6771,-5.677,-5.69,-5.6902,-5.6904,-5.6823,-5.6818,-5.6813,-5.6808,-5.691,-5.6918,-5.6927,-5.7086,0,0,-5.6954,-5.6958,0,0,0,0,0,0,0,0,-5.6631,-5.6647,-5.6774,-5.6773,-5.6772,-5.6843,-5.6843,-5.6965,-5.6825,-5.6803,-5.6811,-5.6805,-5.6894,-5.6904,-5.6935,-5.7091,-5.7096,-5.6955,-5.6961,-5.6964,-5.6967,0,0,0,0,0,0,0,-5.6623,-5.6642,-5.6838,-5.6776,-5.6775,-5.6754,-5.6764,-5.6866,-5.6876,-5.6804,-5.6799,-5.6812,-5.6893,-5.6926,-5.6937,-5.7097,-5.6955,-5.6963,-5.6968,-5.6972,-5.739,-5.7396,0,0,0,0,0,0,-5.6619,-5.6637,-5.6834,-5.6841,-5.6688,-5.6763,-5.6774,-5.6826,-5.6875,-5.6878,-5.6817,-5.6808,-5.6914,-5.6926,-5.694,-5.7131,-5.6964,-5.6973,-5.6978,-5.7385,-5.7392,-5.7398,0,0,0,0,0,0,-5.6613,-5.6637,-5.683,-5.6737,-5.676,-5.6773,-5.6831,-5.683,-5.6864,-5.6884,-5.6885,-5.685,-5.691,-5.6927,-5.7051,-5.7134,-5.6977,-5.6985,-5.7378,-5.7387,-5.7395,-5.7514,0,0,0,0,0,0,-5.6606,-5.6636,-5.6697,-5.6739,-5.6766,-5.6941,-5.6836,-5.6836,-5.688,-5.687,-5.6916,-5.6918,-5.6907,-5.7038,-5.706,-5.7143,-5.6992,-5.737,-5.7382,-5.7392,-5.7503,-5.7526,-5.7546,0,0,0,0,0,-5.6596,-5.6725,-5.6701,-5.6725,-5.6843,-5.6946,-5.6961,-5.6947,-5.6887,-5.6949,-5.6962,-5.6917,-5.7121,-5.7052,-5.7075,-5.7162,-5.7365,-5.7379,-5.7391,-5.7494,-5.7522,-5.7545,0,0,0,0,0,0,-5.6691,-5.6731,-5.6703,-5.685,-5.6896,-5.6932,-5.701,-5.6977,-5.7039,-5.7027,-5.7006,-5.7017,-5.7148,-5.7167,-5.7089,-5.732,-5.7233,-5.7251,-5.7303,-5.733,-5.735,-5.7344,-5.6999,0,0,0,0,0,-5.6729,-5.6811,-5.684,-5.6967,-5.6992,-5.6997,-5.7041,-5.7027,-5.7073,-5.7091,-5.7113,-5.7158,-5.7232,-5.7281,-5.7351,-5.7505,-5.7514,-5.7576,-5.7597,-5.7615,-5.7631,-5.7716,-5.7744,-5.744,-5.744,-5.744,0,0,-5.6809,-5.684,-5.6893,-5.6987,-5.7021,-5.7105,-5.7014,-5.7106,-5.7169,-5.7104,-5.7224,-5.7242,-5.729,-5.743,-5.7493,-5.745,-5.7717,-5.7631,-5.7645,-5.7652,-5.7732,-5.7761,-5.7786,-5.7449,-5.7447,-5.7446,0,0,-5.6997,-5.7029,-5.7139,-5.7175,-5.7228,-5.723,-5.7257,-5.7299,-5.7309,-5.7428,-5.7382,-5.7455,-5.7583,-5.762,-5.7656,-5.7859,-5.782,-5.7882,-5.7994,-5.8076,-5.81,-5.8121,-5.8195,-5.8222,-5.7898,-5.7898,-5.7898,0,-5.7089,-5.7216,-5.7199,-5.7297,-5.734,-5.7287,-5.7398,-5.7433,-5.7505,-5.7535,-5.7486,-5.7647,-5.7676,-5.7825,-5.7875,-5.7904,-5.7934,-5.7877,-5.8098,-5.8119,-5.8138,-5.8209,-5.8237,-5.7906,-5.7905,-5.7904,-5.7903,0,-5.7327,-5.7416,-5.7498,-5.7572,-5.7623,-5.7727,-5.7725,-5.778,-5.776,-5.7768,-5.7891,-5.7923,-5.7999,-5.8033,-5.8014,-5.818,-5.8152,-5.8101,-5.8014,-5.8175,-5.8241,-5.8268,-5.7916,-5.7913,-5.7911,-5.7909,0,0,-5.758,-5.7643,-5.7674,-5.7707,-5.7761,-5.7829,-5.7929,-5.8005,-5.8053,-5.8103,-5.8188,-5.8298,-5.8252,-5.8292,-5.8277,-5.8349,-5.851,-5.8289,-5.829,-5.8331,-5.8696,-5.8736,-5.8767,-5.8484,-5.8489,-5.8493,-5.8692,0,-5.7772,-5.7951,-5.7939,-5.8106,-5.8188,-5.8139,-5.8226,-5.8269,-5.8279,-5.8349,-5.8358,-5.8438,-5.8369,-5.8394,-5.8463,-5.8476,-5.8583,-5.8461,-5.8562,-5.8566,-5.8554,-5.8801,-5.8843,-5.903,-5.8718,-5.8722,-5.8725,0,-5.8021,-5.8084,-5.826,-5.8303,-5.8337,-5.8417,-5.8486,-5.8553,-5.86,-5.8602,-5.8648,-5.8621,-5.8722,-5.8631,-5.877,-5.8688,-5.8728,-5.874,-5.8747,-5.8758,-5.8657,-5.882,-5.9089,-5.9118,-5.8765,-5.8762,-5.8759,0,-5.8191,-5.8318,-5.844,-5.8469,-5.8522,-5.858,-5.8604,-5.8645,-5.8692,-5.8751,-5.8782,-5.8851,-5.889,-5.8944,-5.8936,-5.8871,-5.9079,-5.8987,-5.9083,-5.9084,-5.9131,-5.9128,-5.9412,-5.9154,-5.9153,-5.9153,-5.9152,0,-5.8408,-5.8519,-5.8517,-5.8593,-5.8714,-5.8699,-5.8819,-5.8837,-5.8874,-5.8952,-5.8912,-5.8985,-5.8969,-5.9042,-5.9036,-5.9153,-5.917,-5.9174,-5.9172,-5.918,-5.9179,-5.9207,-5.9195,-5.916,-5.9159,-5.9157,-5.9156,0,-5.8619,-5.8622,-5.8753,-5.8792,-5.8805,-5.8893,-5.8926,-5.8997,-5.9003,-5.9102,-5.9124,-5.9134,-5.9217,-5.9215,-5.9308,-5.9304,-5.9449,-5.943,-5.9434,-5.9431,-5.9529,-5.952,-5.9842,-5.9884,-5.9596,-5.9599,-5.9601,0,-5.8759,-5.8843,-5.8892,-5.8942,-5.8971,-5.9051,-5.9099,-5.9086,-5.9138,-5.9198,-5.9262,-5.9341,-5.9405,-5.9541,-5.9555,-5.9627,-5.9611,-5.9719,-5.9621,-5.9627,-5.9615,-5.9611,-5.962,-5.9738,-5.9742,-5.9744,-5.9746,0,-5.9008,-5.9005,-5.9077,-5.915,-5.9209,-5.9265,-5.9316,-5.9359,-5.9351,-5.9411,-5.9497,-5.9547,-5.9644,-5.9724,-5.9793,-5.9816,-5.9781,-5.9777,-5.9803,-5.9813,-5.9813,-5.9816,-5.9489,-5.977,-5.9767,-5.9766,-5.9764,-5.9763,-5.9188,-5.9262,-5.9308,-5.939,-5.9427,-5.9477,-5.9546,-5.9562,-5.9633,-5.9713,-5.97,-5.9797,-5.9841,-5.993,-5.996,-6.0034,-5.9996,-6.0034,-6.0044,-6.0054,-6.0066,-5.9799,-6.0046,-6.0046,-6.0045,-6.0045,-6.0044,0,-5.9437,-5.9465,-5.954,-5.9614,-5.9678,-5.964,-5.9695,-5.9751,-5.9837,-5.9882,-5.9946,-6.0045,-6.0122,-6.0143,-6.0218,-6.0274,-6.0259,-6.0294,-6.0291,-6.0297,-6.0095,-6.0066,-6.0304,-6.0304,-6.0304,-6.0304,-6.0304,-6.0304,-5.9574,-5.9697,-5.97,-5.984,-5.9866,-5.9962,-5.9997,-6.0042,-6.0078,-6.0192,-6.0257,-6.027,-6.0305,-6.0382,-6.0452,-6.0456,-6.0486,-6.0528,-6.0525,-6.0337,-6.0311,-6.0286,-6.0259,-6.0534,-6.0534,-6.0721,-6.0723,-6.0724]}]]